Location: Unspecified
(0.0000°N, 0.0000°E)
Time: 20:59:23
(UTC+00:00)

Altair - Visible Passes

Search period start: 18 December 2014 00:00
Search period end: 28 December 2014 00:00
Orbit: 1501 x 1683 km, 47.2° (Epoch: 16 December)

Date Brightness Start Highest point End Pass type
(mag) Time Alt. Az. Time Alt. Az. Time Alt. Az.
18 Dec 9.2 20:26:50 10° NNW 20:27:34 13° NNW 20:27:34 13° NNW visible
19 Dec 8.7 20:01:59 10° NNW 20:05:06 22° N 20:05:06 22° N visible
20 Dec 8.2 19:37:09 10° N 19:43:04 30° NNE 19:43:04 30° NNE visible
20 Dec 9.5 21:40:36 10° NW 21:41:16 13° WNW 21:41:16 13° WNW visible
21 Dec 8.1 19:12:22 10° N 19:19:57 28° NE 19:21:45 27° ENE visible
21 Dec 8.5 21:15:21 10° NW 21:20:02 33° WNW 21:20:02 33° WNW visible
22 Dec 8.2 18:47:39 10° N 18:54:47 25° NE 19:02:03 10° E visible
22 Dec 7.6 20:50:08 10° NW 20:59:20 66° SW 21:08:55 10° SSE visible
22 Dec 9.7 23:03:32 11° SW 23:04:43 11° SW 23:07:22 10° SSW visible
23 Dec 8.4 18:22:59 10° N 18:29:37 22° NE 18:36:20 10° E visible
23 Dec 7.5 20:24:58 10° NW 20:34:12 74° SW 20:43:49 10° SSE visible
23 Dec 9.7 22:35:22 10° WSW 22:39:25 13° SW 22:43:33 10° SSW visible
24 Dec 7.4 19:59:49 10° NW 20:09:04 82° SW 20:18:42 10° SE visible
24 Dec 9.6 22:09:07 10° WSW 22:14:09 15° SW 22:19:18 10° SSW visible
25 Dec 7.4 19:34:42 10° NW 19:43:57 89° NE 19:53:33 10° SE visible
25 Dec 9.5 21:43:07 10° W 21:48:54 18° SW 21:54:49 10° S visible
26 Dec 7.4 19:09:37 10° NW 19:18:49 81° NE 19:28:22 10° SE visible
26 Dec 9.4 21:17:17 10° W 21:23:39 20° SW 21:30:13 10° S visible
27 Dec 7.4 18:44:33 10° NNW 18:53:42 72° NE 19:03:09 10° SE visible
27 Dec 9.4 20:51:33 10° W 20:58:26 23° SW 21:05:32 10° S visible
